METEOR 2-5 DEB, 39602

Orbit data source: Space-Track

METEOR 2-5 DEB, 39602 is space debris in LEO originally from a launch on Wed, 31 Oct 1979 UTC launched from the Plesetsk Missile And Space Complex (PKMTR). Debris objects in space refer to the collection of defunct objects orbiting the Earth. Examples of debris include non-operational satellites, rocket bodies, and fragments generated from explosions, collisions, or faulty payload assembly.

Loading next visibility...
Identifier
39602, 1979-095CD
Orbit
LEO
Country
Flag of CISCIS
Related business
Manufacturer
Unknown
Mission
Spacecraft
Bus & Motor
Unknown
Mass
Unknown
Launch date (UTC)
1979-10-31 (46 years ago)
Launch vehicle
Unknown
Launch site
Plesetsk Missile And Space Complex (PKMTR)
Object type
Payload
Rocket body
Debris
Shape & HBR
Unknown shape, 1.1 m
Radar Cross Section
Small (<0.1 m²)

Expand to show TLE details & history
Last TLE update: 2 weeks ago

TLE from 2 weeks ago
0 METEOR 2-5 DEB
1 39602U 79095CD  25340.16091831  .00123490  00000-0  13687-1 0  9998
2 39602  81.1807 294.0599 0013341 109.7135 250.5518 14.86553611605639
Epoch: 2025-12-06T03:51Z
TLE epoch observation values (Epoch: 2025-12-06T03:51:43.341Z)
Latitude
-0.00007°
Longitude
160.93667°
Altitude
614.83 km
Speed
7.55 km/s
True Right ascension
19h 36m 14s
True Declination
0° 00' 00"
Sunlit
Object was in daylight at epoch
Visualization orbit readout
Latitude
Unknown
Longitude
Unknown
Altitude
Unknown
Speed
Unknown
Apparent Right ascension
Unknown
Apparent Declination
Unknown
Sunlit
N/A
Visualization observer readout
Local Sidereal Time
12:22:26
Azimuth
Unknown
Elevation
Unknown
Doppler factor
Unknown
Orbital elements
Apogee altitude
615.107 km
Perigee altitude
596.472 km
Semi-major axis
6,983.926 km
Eccentricity
0.00133
Inclination
81.1807°
RAAN
294.0599°
Arg. of periapsis
109.7135°
True anomaly
250.40773°
Mean anomaly
250.5518°
Eccentric anomaly
250.47976°
Mean motion
3.71872 °/min
Orbital period
96.81 mins
BSTAR
0.013687
Loading maneuver chart data...
Computing Atmospheric mass density...

Documentation

Showing up to 5 results
|